"2010-04-10 00:00:00",11980,8.1,103.7,6.708,0.664,14.14,105.8823,14.33,15.36,22.88,0,110.5,13.32,15.13,65.7
"2010-04-10 00:00:30",11981,8.23,108.3,1.876,0.608,14.21,105.8823,14.33,15.35,22.48,0,110.5,13.32,15.13,70.3
"2010-04-10 00:01:00",11982,8.88,108.2,1.42,0.229,14.49,105.8823,14.33,15.36,21.49,0,110.5,13.32,15.13,70.2
"2010-04-10 00:01:30",11983,9.27,108.3,1.913,0.188,14.35,105.8823,14.33,15.34,20.67,0,110.5,13.32,15.13,70.3
"2010-04-10 00:02:00",11984,8.89,109.5,1.643,0.191,14.28,105.8823,14.33,15.34,20.83,0,110.5,13.32,15.13,71.5
"2010-04-10 00:02:30",11985,8.56,112.8,1.811,0.389,14.6,105.8823,14.33,15.34,20.85,0,110.5,13.32,15.13,74.8
"2010-04-10 00:03:00",11986,8.78,112,3.056,0.645,14.62,105.8823,14.33,15.33,18.89,0,110.5,13.32,15.13,74.0
"2010-04-10 00:03:30",11987,8.2,110.1,2.239,0.534,14.73,105.8823,14.33,15.34,18.72,0,110.5,13.32,15.13,72.1
"2010-04-10 00:04:00",11988,8.8,103.6,2.271,0.348,14.5,105.8939,14.36,15.34,18.43,0,110.5,13.32,15.16,65.6
"2010-04-10 00:04:30",11989,8.57,98.6,1.524,0.429,14.49,105.9147,14.41,15.34,18.61,0,110.5,13.32,15.22,60.6
"2010-04-10 00:05:00",11990,9.33,91.8,1.788,0.179,14.22,105.9162,14.42,15.36,19.71,0,110.5,13.32,15.22,53.8
"2010-04-10 00:05:30",11991,9.73,92,1.385,0.274,14.16,105.9162,14.42,15.37,20.8,0,110.5,13.32,15.22,54.0
"2010-04-10 00:06:00",11992,9.5,90,2.036,0.269,14.21,105.9162,14.42,15.38,21.7,0,110.5,13.32,15.22,52.0
"2010-04-10 00:06:30",11993,8.73,88.8,2.112,0.524,14.23,105.9162,14.42,15.37,21.2,0,110.5,13.32,15.22,50.8
"2010-04-10 00:07:00",11994,8.46,87,3.144,0.325,14.26,105.9162,14.42,15.38,21.85,0,110.5,13.32,15.22,49.0
"2010-04-10 00:07:30",11995,8.52,87.5,2.141,0.351,14.21,105.9162,14.42,15.38,21.73,0,110.5,13.32,15.22,49.5
"2010-04-10 00:08:00",11996,9.07,85.8,1.427,0.265,14.2,105.9162,14.42,15.39,21.73,0,110.5,13.32,15.22,47.8
"2010-04-10 00:08:30",11997,8.6,86.1,2.618,0.419,14.25,105.9088,14.4,15.39,22.28,0,110.5,13.32,15.20,48.1
"2010-04-10 00:09:00",11998,9.14,85.1,1.994,0.31,14.27,105.895,14.36,15.37,21.8,0,110.5,13.32,15.17,47.1
"2010-04-10 00:09:30",11999,9.09,80.1,2.556,0.266,14.35,105.8832,14.33,15.37,22.06,0,110.5,13.32,15.14,42.1
"2010-04-10 00:10:00",12000,8.78,74.63,2.199,0.497,14.32,105.8823,14.33,15.38,22.44,0,110.6,13.32,15.13,36.6
"2010-04-10 00:10:30",12001,8.12,77.75,1.917,0.256,14.37,105.8823,14.33,15.36,22.4,0,110.5,13.32,15.13,39.8
"2010-04-10 00:11:00",12002,8.57,78.91,2.426,0.318,14.5,105.8823,14.33,15.35,22.16,0,110.5,13.32,15.13,40.9
"2010-04-10 00:11:30",12003,8.3,81.7,4.931,0.477,14.47,105.8823,14.33,15.36,22.65,0,110.5,13.32,15.13,43.7
"2010-04-10 00:12:00",12004,7.771,80.9,5.798,0.509,14.44,105.8823,14.33,15.36,23.32,0,110.5,13.32,15.13,42.9
"2010-04-10 00:12:30",12005,8.34,82,3.638,0.313,14.39,105.8823,14.33,15.33,23.51,0,110.5,13.32,15.13,44.0
"2010-04-10 00:13:00",12006,8.36,75.06,2.615,0.48,14.24,105.8823,14.33,15.35,24.15,0,110.5,13.32,15.13,37.1
"2010-04-10 00:13:30",12007,8.68,74.89,3.997,0.37,14.19,105.8823,14.33,15.35,24.67,0,110.5,13.32,15.13,36.9
"2010-04-10 00:14:00",12008,8.35,79.66,6.326,0.776,14.16,105.8823,14.33,15.33,23.84,0,110.5,13.32,15.13,41.7
"2010-04-10 00:14:30",12009,7.69,76.54,6.404,0.45,14.15,105.8821,14.33,15.34,23.94,0,110.5,13.32,15.13,38.5
"2010-04-10 00:15:00",12010,8.1,79.58,4.751,0.187,14.28,105.8742,14.31,15.34,22.97,0,110.6,13.32,15.11,41.6
"2010-04-10 00:15:30",12011,8.29,79.6,4.203,0.321,14.25,105.8657,14.29,15.33,23.07,0,110.5,13.32,15.09,41.6
"2010-04-10 00:16:00",12012,8.42,79.34,3.659,0.45,14.34,105.8531,14.26,15.32,22.74,0,110.5,13.32,15.06,41.3
"2010-04-10 00:16:30",12013,9.32,84.7,5.723,1.236,16.52,105.8485,14.24,15.43,22.26,0,110.5,13.28,15.05,46.7
"2010-04-10 00:17:00",12014,8.63,74.37,4.939,1.068,15.6,105.8485,14.24,15.44,22.49,0,110.5,13.28,15.05,36.4
"2010-04-10 00:17:30",12015,8.78,76.02,6.262,0.848,15.38,105.8429,14.23,15.29,22.49,0,110.5,13.28,15.03,38.0
"2010-04-10 00:18:00",12016,8.63,73.57,2.262,0.59,14,105.8243,14.18,15.26,22.9,0,110.5,13.32,14.98,35.6
"2010-04-10 00:18:30",12017,7.784,75.06,3.843,0.639,13.91,105.8147,14.16,15.26,22.87,0,110.5,13.32,14.96,37.1
"2010-04-10 00:19:00",12018,7.348,70.64,5.164,0.355,13.81,105.8147,14.16,15.24,23.22,0,110.5,13.32,14.96,32.6
"2010-04-10 00:19:30",12019,7.595,68.94,1.669,0.279,13.87,105.8145,14.16,15.23,22.63,0,110.5,13.32,14.96,30.9
"2010-04-10 00:20:00",12020,8.24,68.67,1.577,0.318,13.99,105.8077,14.14,15.21,22.14,0,110.5,13.32,14.94,30.7
"2010-04-10 00:20:30",12021,7.741,69.93,2.555,0.341,14.07,105.7885,14.09,15.19,22.21,0,110.5,13.32,14.89,31.9
"2010-04-10 00:21:00",12022,7.34,72.34,2.748,0.371,14.12,105.7809,14.07,15.16,22.35,0,110.5,13.32,14.87,34.3
"2010-04-10 00:21:30",12023,7.187,75.2,3.384,0.272,14.15,105.7809,14.07,15.16,22.36,0,110.5,13.33,14.87,37.2
"2010-04-10 00:22:00",12024,7.068,64.64,3.603,0.359,14.25,105.7809,14.07,15.15,22.61,0,110.5,13.33,14.87,26.6
"2010-04-10 00:22:30",12025,7.064,61.68,4.654,0.399,14.27,105.7809,14.07,15.14,22.63,0,110.5,13.33,14.87,23.7
"2010-04-10 00:23:00",12026,7.704,58.52,1.823,0.5,14.34,105.7809,14.07,15.12,21.92,0,110.5,13.33,14.87,20.5
"2010-04-10 00:23:30",12027,7.859,59.17,2.404,0.244,14.32,105.775,14.06,15.1,21.52,0,110.5,13.33,14.86,21.2
"2010-04-10 00:24:00",12028,8.75,66.11,4.603,1.082,14.46,105.7626,14.02,15.09,22.5,0,110.5,13.29,14.83,28.1
"2010-04-10 00:24:30",12029,9.54,69.15,7.807,1.569,16.37,105.7488,13.99,15.23,23.1,0,110.5,13.29,14.79,31.2
"2010-04-10 00:25:00",12030,8.67,56.44,1.329,0.343,14.32,105.7471,13.99,15.15,23.11,0,110.5,13.33,14.79,18.4
"2010-04-10 00:25:30",12031,9.14,65.31,7.046,1.292,16.03,105.7471,13.99,15.17,23.35,0,110.5,13.29,14.79,27.3
"2010-04-10 00:26:00",12032,11.29,72.77,5.647,1.14,18.65,105.7471,13.99,15.39,23.78,0,110.5,13.29,14.79,34.8
"2010-04-10 00:26:30",12033,10.89,70.43,6.879,1.151,16.94,105.7471,13.99,15.3,24.04,0,110.5,13.28,14.79,32.4
"2010-04-10 00:27:00",12034,9.64,58.27,1.381,0.334,12.76,105.7418,13.97,15.03,23.44,0,110.5,13.28,14.77,20.3
"2010-04-10 00:27:30",12035,8.39,59.35,1.447,0.514,12.69,105.717,13.91,15.01,22.53,0,110.5,13.32,14.71,21.3
"2010-04-10 00:28:00",12036,8.34,58.56,1.873,0.312,12.95,105.7133,13.9,14.99,22.18,0,110.5,13.32,14.70,20.6
"2010-04-10 00:28:30",12037,7.824,59.97,2.258,0.688,13.38,105.713,13.9,14.99,22.77,0,110.5,13.32,14.70,22.0
"2010-04-10 00:29:00",12038,7.465,61.99,4.092,0.895,14.17,105.7035,13.87,14.96,21.05,0,110.5,13.28,14.67,24.0
"2010-04-10 00:29:30",12039,7.893,67.2,5.944,1.262,15.23,105.683,13.82,15.04,21.96,0,110.5,13.28,14.62,29.2
"2010-04-10 00:30:00",12040,8.93,65.81,8.29,1.336,16.01,105.6807,13.82,14.99,21.53,0,110.5,13.28,14.62,27.8
"2010-04-10 00:30:30",12041,7.781,55.9,1.349,0.512,14.13,105.6834,13.82,14.97,21.74,0,110.5,13.32,14.62,17.9
"2010-04-10 00:31:00",12042,8.69,61.38,6.644,1.311,16.07,105.6855,13.83,14.96,21.61,0,110.5,13.28,14.63,23.4
"2010-04-10 00:31:30",12043,9.22,65.58,5.464,1.141,17.48,105.6823,13.82,15.17,22.46,0,110.5,13.28,14.62,27.6
"2010-04-10 00:32:00",12044,9.11,66.09,5.659,1.482,16.78,105.6615,13.77,15.06,22.73,0,110.5,13.28,14.57,28.1
"2010-04-10 00:32:30",12045,7.349,55.06,1.054,0.596,12.6,105.6594,13.76,14.84,22.92,0,110.5,13.28,14.56,17.1
"2010-04-10 00:33:00",12046,7.275,51.69,1.999,0.336,12.28,105.6609,13.76,14.83,22.77,0,110.5,13.32,14.56,13.7
"2010-04-10 00:33:30",12047,7.075,52.66,2.786,0.721,12.43,105.6654,13.78,14.82,23.05,0,110.5,13.32,14.58,14.7
"2010-04-10 00:34:00",12048,8.47,58.41,5.464,1.401,13.45,105.6485,13.73,14.88,23.89,0,110.5,13.29,14.53,20.4
"2010-04-10 00:34:30",12049,8.19,57.74,7.077,2.151,14.75,105.6372,13.7,14.85,25.07,0,110.5,13.29,14.50,19.7
"2010-04-10 00:35:00",12050,8.27,63.08,9.42,1.368,15.7,105.6393,13.71,14.89,24.67,0,110.5,13.29,14.51,25.1
"2010-04-10 00:35:30",12051,7.104,65.37,4.74,0.819,14.3,105.6309,13.69,14.88,23.99,0,110.5,13.29,14.49,27.4
"2010-04-10 00:36:00",12052,8.56,61.85,9.32,1.006,14.5,105.6176,13.65,14.78,23.53,0,110.5,13.29,14.45,23.8
"2010-04-10 00:36:30",12053,9.53,80.4,10.27,1.324,17.21,105.6123,13.64,14.89,23.01,0,110.5,13.29,14.44,42.4
"2010-04-10 00:37:00",12054,8.92,82.1,7.446,1.36,16.67,105.6132,13.64,14.97,21.86,0,110.5,13.29,14.44,44.1
"2010-04-10 00:37:30",12055,8.23,83.5,4.201,1.252,14.5,105.6104,13.64,14.66,21.52,0,110.5,13.29,14.43,45.5
"2010-04-10 00:38:00",12056,6.472,81.2,2.36,0.308,13.15,105.6039,13.62,14.64,19.8,0,110.5,13.33,14.42,43.2
"2010-04-10 00:38:30",12057,5.946,80.2,2.397,0.223,13.24,105.6042,13.62,14.63,19.02,0,110.5,13.33,14.42,42.2
"2010-04-10 00:39:00",12058,5.89,76.43,2.468,0.107,13.44,105.6096,13.63,14.62,18.71,0,110.5,13.33,14.43,38.4
"2010-04-10 00:39:30",12059,6.687,78.01,2.953,0.573,13.69,105.6138,13.64,14.6,19.08,0,110.5,13.33,14.44,40.0
"2010-04-10 00:40:00",12060,7.68,79.76,2.858,0.913,13.82,105.6138,13.64,14.63,19.88,0,110.5,13.33,14.44,41.8
"2010-04-10 00:40:30",12061,8.86,83.6,1.288,0.33,14.1,105.6141,13.64,14.7,21.46,0,110.5,13.33,14.44,45.6
"2010-04-10 00:41:00",12062,10.08,90.5,9.02,1.751,17.31,105.6237,13.67,14.84,22.75,0,110.5,13.29,14.47,52.5
"2010-04-10 00:41:30",12063,9.4,91.3,6.864,1.754,17.1,105.6284,13.68,14.9,24.47,0,110.5,13.29,14.48,53.3
"2010-04-10 00:42:00",12064,10.61,81.6,10.32,1.248,16.98,105.6203,13.66,14.94,24.18,0,110.5,13.29,14.46,43.6
"2010-04-10 00:42:30",12065,9.35,97.1,11.67,1.192,15.4,105.6138,13.64,14.77,22.98,0,110.5,13.29,14.44,59.1
"2010-04-10 00:43:00",12066,8.04,90.9,4.23,0.613,12.42,105.6138,13.64,14.65,21.99,0,110.5,13.33,14.44,52.9
"2010-04-10 00:43:30",12067,7.989,86.2,6.136,0.566,12.19,105.6138,13.64,14.64,23.84,0,110.5,13.33,14.44,48.2
"2010-04-10 00:44:00",12068,7.954,89.6,10.99,0.769,12.65,105.6017,13.61,14.62,24.57,0,110.5,13.33,14.41,51.6
"2010-04-10 00:44:30",12069,5.495,65.09,15.18,0.701,13.13,105.58,13.56,14.63,24.66,0,110.5,13.33,14.36,27.1
"2010-04-10 00:45:00",12070,5.527,76.06,12.6,1.504,15.22,105.58,13.56,14.67,24.1,0,110.4,13.29,14.36,38.1
"2010-04-10 00:45:30",12071,7.32,90.7,12.09,1.407,17.18,105.5769,13.55,14.83,24.25,0,110.4,13.29,14.35,52.7
"2010-04-10 00:46:00",12072,9.02,80.4,8.44,1.54,17.27,105.5543,13.49,14.82,24.82,0,110.4,13.29,14.29,42.4
"2010-04-10 00:46:30",12073,11.44,79.08,7.573,1.637,17.02,105.5462,13.47,14.79,25.01,0,110.4,13.29,14.27,41.1
"2010-04-10 00:47:00",12074,9.17,87.6,23.96,1.696,15.76,105.5352,13.44,14.71,24.33,0,110.4,13.29,14.24,49.6
"2010-04-10 00:47:30",12075,7.467,87.3,3.248,0.829,12.7,105.5132,13.39,14.5,22.78,0,110.4,13.33,14.18,49.3
"2010-04-10 00:48:00",12076,8.52,89,1.995,0.49,12.68,105.5123,13.38,14.45,21.46,0,110.4,13.33,14.18,51.0
"2010-04-10 00:48:30",12077,8.36,91.1,2.344,0.345,13.03,105.5123,13.38,14.45,21.06,0,110.4,13.33,14.18,53.1
"2010-04-10 00:49:00",12078,7.993,95.7,3.428,0.354,13.5,105.5123,13.38,14.43,20.62,0,110.4,13.33,14.18,57.7
"2010-04-10 00:49:30",12079,6.393,95.4,3.427,0.611,13.92,105.5222,13.41,14.43,19.73,0,110.4,13.33,14.21,57.4
"2010-04-10 00:50:00",12080,7.385,96.3,4.486,0.887,14.2,105.5456,13.47,14.42,19.1,0,110.4,13.34,14.27,58.3
"2010-04-10 00:50:30",12081,7.344,102.3,7.636,0.851,14.33,105.5533,13.49,14.46,19.18,0,110.4,13.34,14.29,64.3
"2010-04-10 00:51:00",12082,8.26,99.2,3.716,0.504,14.37,105.5789,13.55,14.46,19.23,0,110.4,13.34,14.35,61.2
"2010-04-10 00:51:30",12083,7.642,106.5,7.629,0.708,14.12,105.5946,13.59,14.5,20.51,0,110.4,13.34,14.39,68.5
"2010-04-10 00:52:00",12084,7.773,108.1,5.145,0.724,14.86,105.6189,13.66,14.53,20.08,0,110.4,13.34,14.46,70.1
"2010-04-10 00:52:30",12085,7.033,109.5,7.208,1.19,14.81,105.6322,13.69,14.56,18.62,0,110.4,13.34,14.49,71.5
"2010-04-10 00:53:00",12086,8.2,106.1,10.13,1.152,14.69,105.6545,13.75,14.6,19.63,0,110.4,13.34,14.55,68.1
"2010-04-10 00:53:30",12087,8.31,91.2,11.11,0.777,14.09,105.6694,13.79,14.63,20.8,0,110.4,13.34,14.59,53.2
"2010-04-10 00:54:00",12088,8,88.5,8.17,1.119,14.75,105.6907,13.84,14.82,23.38,0,110.3,13.31,14.64,50.5
"2010-04-10 00:54:30",12089,8.01,91.4,14.84,2.375,15.73,105.6942,13.85,14.77,22.08,0,110.4,13.31,14.65,53.4
"2010-04-10 00:55:00",12090,7.072,81.6,10.52,1.443,14.45,105.6942,13.85,14.77,22.59,0,110.4,13.31,14.65,43.6
"2010-04-10 00:55:30",12091,8.96,88.3,7.307,1.6,16.94,105.6922,13.84,15.01,23.56,0,110.4,13.31,14.64,50.3
"2010-04-10 00:56:00",12092,8.47,96.2,11.67,1.668,17,105.6942,13.85,14.99,22.77,0,110.4,13.31,14.65,58.2
"2010-04-10 00:56:30",12093,5.357,65.63,4.628,1.184,14.11,105.696,13.85,14.92,23.55,0,110.4,13.31,14.65,27.6
"2010-04-10 00:57:00",12094,6.266,88.7,4.951,1.195,11.93,105.6741,13.8,14.76,23.36,0,110.4,13.34,14.60,50.7
"2010-04-10 00:57:30",12095,7.652,94.6,6.905,0.643,12.57,105.6622,13.77,14.75,21.86,0,110.4,13.34,14.57,56.6
"2010-04-10 00:58:00",12096,7.638,100.2,6.261,0.972,13.52,105.6622,13.77,14.74,19.26,0,110.4,13.34,14.57,62.2
"2010-04-10 00:58:30",12097,7.65,106.9,2.869,0.477,13.65,105.6701,13.79,14.74,18.77,0,110.4,13.34,14.59,68.9
"2010-04-10 00:59:00",12098,8.84,109.2,3.078,0.363,13.85,105.6822,13.82,14.74,19.68,0,110.4,13.34,14.62,71.2
"2010-04-10 00:59:30",12099,8.08,101.3,8.8,0.667,14.09,105.6974,13.86,14.75,19.66,0,110.4,13.34,14.66,63.3
"2010-04-10 01:00:00",12100,8.93,97.4,6.87,0.771,14.1,105.7029,13.87,14.77,20.76,0,110.4,13.34,14.67,59.4
"2010-04-10 01:00:30",12101,8.47,96.5,9.34,1.418,16.17,105.7011,13.87,14.94,21.68,0,110.4,13.31,14.67,58.5
"2010-04-10 01:01:00",12102,7.427,106.4,9.08,1.402,16.21,105.7047,13.88,14.94,21.62,0,110.4,13.3,14.68,68.4
"2010-04-10 01:01:30",12103,8.06,110.2,8.04,2.011,16.52,105.7029,13.87,14.95,21.78,0,110.4,13.3,14.67,72.2
"2010-04-10 01:02:00",12104,9.02,119.3,11.67,2.221,18.09,105.7047,13.88,15.05,19.35,0,110.4,13.29,14.68,81.3
"2010-04-10 01:02:30",12105,6.511,107.4,5.85,0.81,14.26,105.7023,13.87,14.87,20.13,0,110.4,13.3,14.67,69.4
"2010-04-10 01:03:00",12106,6.486,106.8,5.012,0.717,13.8,105.7076,13.88,14.79,17.93,0,110.4,13.33,14.68,68.8
"2010-04-10 01:03:30",12107,7.982,103.3,4.464,0.46,13.21,105.7065,13.88,14.82,17.72,0,110.4,13.33,14.68,65.3
"2010-04-10 01:04:00",12108,9.13,93.3,6.621,0.894,12.84,105.7158,13.9,14.81,20.26,0,110.4,13.33,14.71,55.3
"2010-04-10 01:04:30",12109,6.225,78.99,4.402,0.978,13.03,105.7373,13.96,14.84,22.11,0,110.4,13.33,14.76,41.0
"2010-04-10 01:05:00",12110,5.973,95.4,9.36,0.803,13.57,105.7406,13.97,14.86,21.8,0,110.4,13.33,14.77,57.4
"2010-04-10 01:05:30",12111,9.15,108.5,5.88,1.188,15.25,105.7409,13.97,14.92,20.22,0,110.4,13.29,14.77,70.5
"2010-04-10 01:06:00",12112,8.99,108.4,9.19,1.476,16.33,105.741,13.97,14.96,19.58,0,110.4,13.3,14.77,70.4
"2010-04-10 01:06:30",12113,8.13,109.2,5.971,0.221,14.4,105.7421,13.97,14.87,18.14,0,110.4,13.34,14.77,71.2
"2010-04-10 01:07:00",12114,7.657,93.9,5.22,0.545,13.91,105.7439,13.98,14.89,19.29,0,110.4,13.34,14.78,55.9
"2010-04-10 01:07:30",12115,7.788,104.2,10.65,1.723,16,105.7453,13.98,15.04,20.96,0,110.4,13.31,14.78,66.2
"2010-04-10 01:08:00",12116,8.04,104.9,7.23,0.907,15.66,105.7433,13.98,15.04,19.37,0,110.4,13.31,14.78,66.9
"2010-04-10 01:08:30",12117,7.746,106.5,5.496,0.875,14.92,105.7442,13.98,14.92,18.88,0,110.4,13.31,14.78,68.5
"2010-04-10 01:09:00",12118,6.495,98.4,6.697,1.074,15.31,105.7453,13.98,15.05,20.85,0,110.4,13.31,14.78,60.4
"2010-04-10 01:09:30",12119,7.319,99.9,10.55,1.27,17.5,105.7474,13.99,15.15,21.35,0,110.4,13.31,14.79,61.9
"2010-04-10 01:10:00",12120,5.451,100.7,8.64,1.517,14.3,105.7448,13.98,15.04,21.5,0,110.4,13.31,14.78,62.7
"2010-04-10 01:10:30",12121,5.444,102.3,6.971,1.237,13.16,105.7477,13.99,14.93,20.43,0,110.4,13.34,14.79,64.3
"2010-04-10 01:11:00",12122,6.932,109.4,8.8,0.988,15.69,105.7492,13.99,14.99,18.05,0,110.4,13.3,14.79,71.4
"2010-04-10 01:11:30",12123,7.585,116.6,10.09,1.447,15.89,105.7495,13.99,15.07,17.74,0,110.4,13.31,14.79,78.6
"2010-04-10 01:12:00",12124,5.554,102.5,4.64,0.568,14,105.7495,13.99,14.92,17.25,0,110.4,13.34,14.79,64.5
"2010-04-10 01:12:30",12125,7.864,86.1,3.466,0.537,13.65,105.7507,13.99,14.92,17.98,0,110.4,13.34,14.80,48.1
"2010-04-10 01:13:00",12126,8.08,86.2,5.836,0.55,13.85,105.7507,13.99,14.93,19.32,0,110.4,13.34,14.80,48.2
"2010-04-10 01:13:30",12127,7.608,76.41,6.887,0.92,13.76,105.7513,14,14.98,20.37,0,110.4,13.34,14.80,38.4
"2010-04-10 01:14:00",12128,8.5,95.6,7.511,1.199,15.99,105.7507,13.99,15.06,21.11,0,110.4,13.31,14.80,57.6
"2010-04-10 01:14:30",12129,8.75,88.3,7.694,1.634,16.66,105.751,14,15.11,21.64,0,110.4,13.31,14.80,50.3
"2010-04-10 01:15:00",12130,8.43,88.7,7.756,1.505,16.94,105.751,14,15.2,21.91,0,110.4,13.31,14.80,50.7
"2010-04-10 01:15:30",12131,6.902,92.5,5.339,1.151,14.12,105.7445,13.98,14.98,21.42,0,110.4,13.3,14.78,54.5
"2010-04-10 01:16:00",12132,9.2,106.2,5.729,1.634,15.04,105.7208,13.92,14.94,19.43,0,110.4,13.31,14.72,68.2
"2010-04-10 01:16:30",12133,8.72,103.8,7.265,1.552,15.03,105.7172,13.91,15.06,19.34,0,110.4,13.31,14.71,65.8
"2010-04-10 01:17:00",12134,8.58,98.9,5.291,0.939,13.27,105.7172,13.91,14.91,20.12,0,110.4,13.34,14.71,60.9
"2010-04-10 01:17:30",12135,9.28,99.5,3.992,0.454,13.84,105.7172,13.91,14.9,18.5,0,110.4,13.34,14.71,61.5
"2010-04-10 01:18:00",12136,7.828,89.6,6.671,0.499,13.75,105.7169,13.91,14.91,19.5,0,110.4,13.34,14.71,51.6
"2010-04-10 01:18:30",12137,7.573,94.3,3.75,0.438,14.15,105.7163,13.91,14.88,19.64,0,110.4,13.34,14.71,56.3
"2010-04-10 01:19:00",12138,7.518,98.5,2.667,0.397,14.99,105.7059,13.88,14.86,18.92,0,110.4,13.34,14.68,60.5
"2010-04-10 01:19:30",12139,6.838,97.9,3.507,0.291,14.73,105.7025,13.87,14.86,18.57,0,110.4,13.34,14.67,59.9
"2010-04-10 01:20:00",12140,8.39,110.7,7.591,1.382,16.73,105.7028,13.87,14.94,19.56,0,110.4,13.3,14.67,72.7
"2010-04-10 01:20:30",12141,9.56,107.5,7.297,0.975,19.65,105.691,13.84,15.18,19.94,0,110.4,13.3,14.64,69.5
"2010-04-10 01:21:00",12142,9.43,107.4,11.24,1.463,16.7,105.6873,13.83,14.96,19.87,0,110.4,13.3,14.63,69.4
"2010-04-10 01:21:30",12143,8.38,107.7,6.891,1.293,14.63,105.6833,13.82,15.04,20.54,0,110.4,13.3,14.62,69.7
"2010-04-10 01:22:00",12144,7.98,105.3,7.808,1.324,13.51,105.6833,13.82,14.84,21.09,0,110.4,13.3,14.62,67.3
"2010-04-10 01:22:30",12145,7.872,103.1,3.26,0.61,13.41,105.6833,13.82,14.83,19.61,0,110.4,13.34,14.62,65.1
"2010-04-10 01:23:00",12146,8.08,106.1,2.18,0.438,13.65,105.6833,13.82,14.83,18.15,0,110.4,13.34,14.62,68.1
"2010-04-10 01:23:30",12147,8.68,107.9,2.576,0.276,14.03,105.6833,13.82,14.83,18.19,0,110.4,13.34,14.62,69.9
"2010-04-10 01:24:00",12148,8.69,109,1.89,0.469,14.41,105.6833,13.82,14.82,17.76,0,110.4,13.34,14.62,71.0
"2010-04-10 01:24:30",12149,7.897,106.3,3.536,0.299,14.64,105.6833,13.82,14.81,18,0,110.4,13.35,14.62,68.3
"2010-04-10 01:25:00",12150,7.724,105.7,2.643,0.549,15.03,105.6836,13.82,14.81,17.71,0,110.4,13.35,14.62,67.7
"2010-04-10 01:25:30",12151,8.75,103,2.885,0.449,14.81,105.6924,13.84,14.83,18.16,0,110.4,13.35,14.65,65.0
"2010-04-10 01:26:00",12152,9.37,109,10.29,1.166,17.08,105.7115,13.89,15.01,18.83,0,110.4,13.32,14.69,71.0
"2010-04-10 01:26:30",12153,10.46,119.9,5.976,1.044,19.52,105.7172,13.91,15.19,18.65,0,110.4,13.32,14.71,81.9
"2010-04-10 01:27:00",12154,10.69,118.1,9.12,1.421,18.13,105.7172,13.91,15.11,18.17,0,110.4,13.31,14.71,80.1
"2010-04-10 01:27:30",12155,9.97,107.8,5.274,1.296,15.55,105.7172,13.91,14.91,18.09,0,110.4,13.31,14.71,69.8
"2010-04-10 01:28:00",12156,7.859,105.3,3.206,0.482,13.11,105.7172,13.91,14.94,18.52,0,110.4,13.35,14.71,67.3
"2010-04-10 01:28:30",12157,6.767,100.7,3.101,0.598,13.64,105.7189,13.91,14.88,17.64,0,110.4,13.35,14.71,62.7
"2010-04-10 01:29:00",12158,7.66,103.2,4.506,0.45,13.49,105.7262,13.93,14.89,17.63,0,110.4,13.35,14.73,65.2
"2010-04-10 01:29:30",12159,8.45,104.2,2.848,0.6,14.06,105.7335,13.95,14.9,18.14,0,110.4,13.35,14.75,66.2
"2010-04-10 01:30:00",12160,8.32,102.7,1.752,0.35,14.15,105.7496,13.99,14.92,18.31,0,110.4,13.35,14.79,64.7
"2010-04-10 01:30:30",12161,8.3,96.5,1.27,0.151,14.41,105.7507,13.99,14.93,18.63,0,110.4,13.35,14.80,58.5
"2010-04-10 01:31:00",12162,7.721,106.3,5.098,0.3,14.86,105.7505,13.99,14.94,18.34,0,110.4,13.36,14.79,68.3
"2010-04-10 01:31:30",12163,7.643,98.7,7.666,0.763,15.38,105.751,14,14.94,17.2,0,110.4,13.36,14.80,60.7
"2010-04-10 01:32:00",12164,8,95.8,6.682,0.388,14.95,105.751,14,14.95,17.74,0,110.4,13.36,14.80,57.8
"2010-04-10 01:32:30",12165,10.31,101.4,6.418,1.087,19.2,105.751,14,15.32,18.91,0,110.4,13.32,14.80,63.4
"2010-04-10 01:33:00",12166,10.57,103,5.504,0.664,19.19,105.751,14,15.28,18.87,0,110.4,13.32,14.80,65.0
"2010-04-10 01:33:30",12167,8.81,100.1,6.665,1.372,16.97,105.7522,14,15.19,18.23,0,110.4,13.32,14.80,62.1
"2010-04-10 01:34:00",12168,8.46,96,5.923,1.121,14.06,105.7516,14,14.98,18.1,0,110.4,13.32,14.80,58.0
"2010-04-10 01:34:30",12169,7.075,93.4,1.3,0.25,12.96,105.7522,14,14.97,18.4,0,110.4,13.35,14.80,55.4
"2010-04-10 01:35:00",12170,7.234,92.2,1.687,0.259,13.15,105.7519,14,14.99,18.39,0,110.4,13.35,14.80,54.2
"2010-04-10 01:35:30",12171,7.02,89.9,0.965,0.329,13.59,105.7531,14,14.98,17.99,0,110.4,13.35,14.80,51.9
"2010-04-10 01:36:00",12172,7.469,91.6,1.87,0.386,13.65,105.7484,13.99,14.98,18.42,0,110.4,13.35,14.79,53.6
"2010-04-10 01:36:30",12173,7.963,93.1,1.705,0.246,14.02,105.7329,13.95,14.99,18.87,0,110.4,13.35,14.75,55.1
"2010-04-10 01:37:00",12174,7.735,93.2,1.717,0.219,14.38,105.7266,13.93,15.05,19.13,0,110.4,13.35,14.73,55.2
"2010-04-10 01:37:30",12175,9.26,103.8,6.05,1.469,18.3,105.7225,13.92,15.15,18.97,0,110.3,13.31,14.72,65.8
"2010-04-10 01:38:00",12176,9.82,105.1,6.552,1.268,17.76,105.7237,13.93,15.18,19.12,0,110.4,13.31,14.73,67.1
"2010-04-10 01:38:30",12177,9.47,112.4,3.19,0.814,18.43,105.7226,13.92,15.24,19.45,0,110.4,13.31,14.72,74.4
"2010-04-10 01:39:00",12178,7.526,103.4,6.535,1.37,15.55,105.7027,13.87,15.11,18.84,0,110.3,13.31,14.67,65.4
"2010-04-10 01:39:30",12179,6.766,96.9,2.273,0.332,12.91,105.6932,13.85,14.91,18.66,0,110.4,13.35,14.65,58.9
"2010-04-10 01:40:00",12180,6.95,95.1,4.292,0.316,12.63,105.6956,13.85,14.91,19.12,0,110.3,13.35,14.65,57.1
"2010-04-10 01:40:30",12181,6.884,97.1,2.178,0.247,13.09,105.6965,13.86,14.9,19.46,0,110.3,13.35,14.66,59.1
"2010-04-10 01:41:00",12182,6.739,95.7,2.111,0.544,13.53,105.6854,13.83,14.89,19.36,0,110.3,13.36,14.63,57.7
"2010-04-10 01:41:30",12183,7.333,97.7,2.649,0.247,13.83,105.6654,13.78,14.87,19.47,0,110.3,13.36,14.58,59.7
"2010-04-10 01:42:00",12184,7.037,106.5,4.755,0.887,14.87,105.665,13.77,14.99,19.59,0,110.3,13.32,14.58,68.5
"2010-04-10 01:42:30",12185,8.21,120.1,6.184,1.313,18.02,105.668,13.78,15.06,19.71,0,110.3,13.32,14.58,82.1
"2010-04-10 01:43:00",12186,7.626,119.3,7.3,1.488,17.14,105.6514,13.74,14.99,19.61,0,110.3,13.32,14.54,81.3
"2010-04-10 01:43:30",12187,7.514,110.9,7.415,1.474,16.62,105.6368,13.7,15.08,19.57,0,110.3,13.32,14.50,72.9
"2010-04-10 01:44:00",12188,8.57,108.8,7.008,1.234,16.07,105.6392,13.71,14.97,19.97,0,110.3,13.32,14.51,70.8
"2010-04-10 01:44:30",12189,7.186,100.4,2.432,0.503,12.66,105.6335,13.69,14.75,20.14,0,110.3,13.32,14.49,62.4
"2010-04-10 01:45:00",12190,6.883,100.8,3.368,0.151,12.63,105.6171,13.65,14.73,20.09,0,110.3,13.36,14.45,62.8
"2010-04-10 01:45:30",12191,5.663,89.4,5.606,0.881,12.63,105.6116,13.64,14.73,20.59,0,110.3,13.36,14.44,51.4
"2010-04-10 01:46:00",12192,5.892,84.8,9.51,0.504,12.83,105.6092,13.63,14.7,21.15,0,110.3,13.36,14.43,46.8
"2010-04-10 01:46:30",12193,6.487,89.2,3.729,0.155,13.25,105.5839,13.57,14.74,21.24,0,110.3,13.36,14.37,51.2
"2010-04-10 01:47:00",12194,8.02,95.3,7.344,1.359,16.67,105.582,13.56,14.92,21.74,0,110.3,13.32,14.36,57.3
"2010-04-10 01:47:30",12195,7.695,101,7.536,1.168,16.27,105.5689,13.53,14.84,21.72,0,110.3,13.32,14.33,63.0
"2010-04-10 01:48:00",12196,8.08,100,8.44,1.389,15.66,105.5481,13.48,14.85,21.67,0,110.3,13.32,14.27,62.0
"2010-04-10 01:48:30",12197,7.666,109.5,7.567,1.351,15.74,105.5476,13.47,14.75,21.25,0,110.3,13.32,14.27,71.5
"2010-04-10 01:49:00",12198,5.966,108,2.761,0.76,12.63,105.5214,13.41,14.52,20.68,0,110.3,13.32,14.21,70.0
"2010-04-10 01:49:30",12199,5.428,112.4,2.187,0.138,12.67,105.5161,13.39,14.5,20.53,0,110.3,13.36,14.19,74.4
"2010-04-10 01:50:00",12200,5.334,110.4,1.915,0.157,12.94,105.507,13.37,14.47,20.41,0,110.3,13.36,14.17,72.4
"2010-04-10 01:50:30",12201,5.41,109.2,2.121,0.294,13.32,105.4828,13.31,14.43,20.3,0,110.3,13.36,14.11,71.2